Lancaster, CA

12:53 PM PST on February 20, 2017 (GMT -0800)
Gen Fox

Weather History for KWJF - February, 2014

Change the Weather History Date:

Saturday, February 8, 2014

  Actual Average Record
Temperature  
Mean Temperature 56 °F 47 °F  
Max Temperature 67 °F 61 °F 78 °F (1951)
Min Temperature 45 °F 34 °F 21 °F (2003)
Degree Days  
Heating Degree Days 9    
Month to date heating degree days 160  
Since 1 July heating degree days 2057  
Cooling Degree Days 0    
Month to date cooling degree days 0  
Year to date cooling degree days 0  
Growing Degree Days 6 (Base 50)    
Moisture  
Dew Point 40 °F    
Average Humidity 57    
Maximum Humidity 76    
Minimum Humidity 37    
Precipitation  
Precipitation 0.00 in 0.07 in 0.90 in (1989)
Month to date precipitation 0.06 0.49  
Year to date precipitation 0.11 1.99  
Since 1 July precipitation 1.72  
Snow  
Snow 0.00 in - 4.00 in (1989)
Month to date snowfall 0.0  
Since 1 July snowfall 0.0  
Snow Depth 0.00 in    
Sea Level Pressure  
Sea Level Pressure 30.18 in    
Wind  
Wind Speed 15 mph (WSW)    
Max Wind Speed 26 mph    
Max Gust Speed 33 mph    
Visibility 10 miles    
Events      
T = Trace of Precipitation, MM = Missing Value Source: NWS Daily Summary

Daily Weather History Graph

Daily Weather History Graph

Search for Another Location

Airport or City:

Trip Planner

Search our weather history database for the weather conditions in past years. The results will help you decide how hot, cold, wet, or windy it might be!

Date:

Astronomy

Feb. 08, 2014 Rise Set
Actual Time 6:45 AM PST 5:29 PM PST
Civil Twilight 6:19 AM PST 5:55 PM PST
Nautical Twilight 5:49 AM PST 6:25 PM PST
Astronomical Twilight 5:19 AM PST 6:54 PM PST
Moon 12:30 PM PST (2/8) 1:58 AM PST (2/8)
Length of Visible Light 11h 36m
Length of Day
10h 43m
Waxing Gibbous, 69% of the Moon is Illuminated
Feb 8
Waxing Gibbous
Feb 14
Full
Feb 22
Last Quarter
Mar 1
New
Mar 8
First Quarter

Hourly Weather History & Observations

Time (PST) Temp. Windchill Dew Point Humidity Pressure Visibility Wind Dir Wind Speed Gust Speed Precip Events Conditions
12:56 AM 46.0 °F 40.6 °F 39.9 °F 79% 30.15 in 10.0 mi SW 11.5 mph - N/A   Clear
1:56 AM 46.0 °F 38.5 °F 39.9 °F 79% 30.15 in 10.0 mi WSW 19.6 mph - N/A   Clear
2:56 AM 46.9 °F - 37.9 °F 71% 30.13 in 10.0 mi WSW 16.1 mph - N/A   Clear
3:56 AM 46.0 °F 40.2 °F 37.9 °F 73% 30.14 in 10.0 mi West 12.7 mph - N/A   Clear
4:56 AM 46.0 °F 40.2 °F 37.0 °F 71% 30.16 in 10.0 mi WSW 12.7 mph - N/A   Clear
5:56 AM 45.0 °F 37.9 °F 37.0 °F 74% 30.18 in 10.0 mi WSW 16.1 mph - N/A   Clear
6:56 AM 46.0 °F 43.1 °F 36.0 °F 68% 30.21 in 10.0 mi Variable 5.8 mph - N/A   Clear
7:56 AM 48.9 °F - 37.9 °F 66% 30.21 in 10.0 mi WSW 13.8 mph - N/A   Clear
8:56 AM 53.1 °F - 41.0 °F 64% 30.22 in 10.0 mi WSW 12.7 mph - N/A   Mostly Cloudy
9:56 AM 60.1 °F - 41.0 °F 49% 30.22 in 10.0 mi West 19.6 mph - N/A   Clear
10:56 AM 63.0 °F - 42.1 °F 46% 30.20 in 10.0 mi West 16.1 mph - N/A   Clear
11:56 AM 64.9 °F - 42.1 °F 43% 30.17 in 10.0 mi West 18.4 mph - N/A   Partly Cloudy
12:56 PM 66.9 °F - 39.0 °F 36% 30.14 in 10.0 mi WSW 13.8 mph 24.2 mph N/A   Clear
1:56 PM 66.9 °F - 41.0 °F 39% 30.14 in 10.0 mi SW 16.1 mph - N/A   Clear
2:56 PM 64.9 °F - 39.9 °F 40% 30.13 in 10.0 mi WSW 16.1 mph - N/A   Clear
3:56 PM 62.1 °F - 43.0 °F 50% 30.16 in 10.0 mi WSW 19.6 mph - N/A   Clear
4:56 PM 60.1 °F - 41.0 °F 49% 30.19 in 10.0 mi West 21.9 mph 28.8 mph N/A   Clear
5:56 PM 55.9 °F - 42.1 °F 60% 30.21 in 10.0 mi West 18.4 mph - N/A   Clear
6:56 PM 54.0 °F - 43.0 °F 66% 30.21 in 10.0 mi WSW 18.4 mph - N/A   Clear
7:56 PM 53.1 °F - 42.1 °F 66% 30.20 in 10.0 mi West 16.1 mph - N/A   Clear
8:56 PM 53.1 °F - 42.1 °F 66% 30.20 in 10.0 mi West 12.7 mph - N/A   Clear
9:56 PM 52.0 °F - 42.1 °F 69% 30.19 in 10.0 mi West 15.0 mph - N/A   Clear
10:56 PM 54.0 °F - 39.9 °F 59% 30.19 in 10.0 mi West 5.8 mph 17.3 mph N/A   Clear
11:56 PM 48.9 °F - 39.0 °F 69% 30.17 in 10.0 mi Calm Calm - N/A   Clear